RYR248P EDNY-LEPA

Flight info

Callsign RYR248P
Flight time 1h 38m
Altitude 37000
Route TRA1W TRA Z69 OLBEN N869 NEMOS DCT INCUS DCT BALSI DCT RETNO DCT TUPOX DCT MTG DCT DIVKO DCT VATIR DCT PIVUS DCT BODEQ DCT VERSO DCT LUNIK LUNI3P
Aircraft A320/M-SDE3FGHIRWY/LB1

Departure

Time 2026-05-03 20:56
Airport Bodensee Airport Friedrichshafen (EDNY)

Arrival

Time 2026-05-03 22:34
Airport Palma de Mallorca Airport (LEPA)
Time Latitude Longitude Altitude Speed Heading
2026-05-03 20:40 47.67371 9.52392 1370 ft 0 kts 197°
2026-05-03 20:52 47.67379 9.52395 1368 ft 2 kts 198°
2026-05-03 20:52 47.67394 9.52403 1367 ft 2 kts 179°
2026-05-03 20:52 47.67410 9.52397 1368 ft 2 kts 133°
2026-05-03 20:53 47.67418 9.52377 1366 ft 2 kts 87°
2026-05-03 20:53 47.67416 9.52358 1367 ft 0 kts 51°
2026-05-03 20:53 47.67426 9.52382 1367 ft 10 kts 59°
2026-05-03 20:54 47.67452 9.52456 1368 ft 14 kts 63°
2026-05-03 20:54 47.67626 9.52522 1374 ft 16 kts 321°
2026-05-03 20:54 47.67622 9.52408 1375 ft 2 kts 243°
2026-05-03 20:55 47.67622 9.52407 1375 ft 1 kts 243°
2026-05-03 20:55 47.67535 9.52185 1374 ft 60 kts 239°
2026-05-03 20:55 47.67213 9.51358 1375 ft 122 kts 240°
2026-05-03 20:56 47.66715 9.50050 1452 ft 160 kts 241°
2026-05-03 20:56 47.66257 9.48831 2057 ft 151 kts 242°
2026-05-03 20:56 47.65739 9.47433 2573 ft 157 kts 243°
2026-05-03 20:56 47.65382 9.46512 2927 ft 160 kts 243°
2026-05-03 20:57 47.64617 9.44512 3453 ft 179 kts 243°
2026-05-03 20:57 47.63958 9.42816 3696 ft 201 kts 242°
2026-05-03 20:57 47.63213 9.40929 3996 ft 221 kts 242°
2026-05-03 20:57 47.62739 9.38757 4563 ft 225 kts 275°
2026-05-03 20:58 47.63306 9.36663 5326 ft 224 kts 313°
2026-05-03 20:58 47.64537 9.35210 6014 ft 230 kts 329°
2026-05-03 20:58 47.65492 9.34418 6476 ft 235 kts 332°
2026-05-03 20:58 47.66969 9.33322 7168 ft 239 kts 333°
2026-05-03 20:59 47.68451 9.32229 7884 ft 243 kts 332°
2026-05-03 20:59 47.69982 9.31101 8585 ft 249 kts 337°
2026-05-03 20:59 47.71690 9.30253 8990 ft 271 kts 340°
2026-05-03 20:59 47.73550 9.29317 9344 ft 294 kts 339°
2026-05-03 21:00 47.75514 9.28271 9975 ft 303 kts 334°
2026-05-03 21:00 47.76799 9.27306 10294 ft 312 kts 325°
2026-05-03 21:00 47.79035 9.24410 10649 ft 333 kts 305°
2026-05-03 21:00 47.80276 9.21493 11279 ft 335 kts 295°
2026-05-03 21:01 47.81338 9.18401 12052 ft 335 kts 288°
2026-05-03 21:01 47.81808 9.15039 12835 ft 332 kts 269°
2026-05-03 21:01 47.81499 9.11656 13618 ft 331 kts 254°
2026-05-03 21:01 47.80897 9.08339 14345 ft 333 kts 254°
2026-05-03 21:02 47.80286 9.05002 15004 ft 336 kts 254°
2026-05-03 21:02 47.79671 9.01630 15622 ft 339 kts 254°
2026-05-03 21:02 47.79052 8.98233 16208 ft 343 kts 254°
2026-05-03 21:02 47.78425 8.94795 16820 ft 345 kts 254°
2026-05-03 21:03 47.77789 8.91338 17428 ft 349 kts 254°
2026-05-03 21:03 47.77143 8.87842 18026 ft 352 kts 254°
2026-05-03 21:03 47.76494 8.84313 18603 ft 355 kts 254°
2026-05-03 21:03 47.75841 8.80760 19154 ft 358 kts 254°
2026-05-03 21:04 47.75184 8.77186 19706 ft 361 kts 253°
2026-05-03 21:04 47.74519 8.73570 20269 ft 364 kts 253°
2026-05-03 21:04 47.73847 8.69928 20821 ft 366 kts 253°
2026-05-03 21:04 47.73172 8.66273 21360 ft 369 kts 253°
2026-05-03 21:05 47.72485 8.62572 21875 ft 372 kts 253°
2026-05-03 21:05 47.71793 8.58855 22412 ft 375 kts 253°
2026-05-03 21:05 47.71093 8.55112 22937 ft 378 kts 252°
2026-05-03 21:05 47.70385 8.51347 23466 ft 381 kts 252°
2026-05-03 21:06 47.69669 8.47539 23922 ft 384 kts 252°
2026-05-03 21:06 47.68761 8.43808 24342 ft 385 kts 243°
2026-05-03 21:06 47.67406 8.40388 24767 ft 386 kts 234°
2026-05-03 21:06 47.65860 8.37132 25265 ft 386 kts 234°
2026-05-03 21:07 47.64316 8.33866 25717 ft 387 kts 234°
2026-05-03 21:07 47.62771 8.30588 26128 ft 389 kts 234°
2026-05-03 21:07 47.61217 8.27289 26525 ft 391 kts 234°
2026-05-03 21:07 47.59654 8.23977 26921 ft 393 kts 234°
2026-05-03 21:08 47.58143 8.20785 27286 ft 395 kts 234°
2026-05-03 21:08 47.56533 8.17397 27658 ft 398 kts 234°
2026-05-03 21:08 47.54935 8.14043 28031 ft 400 kts 234°
2026-05-03 21:08 47.53472 8.10967 28365 ft 402 kts 234°
2026-05-03 21:09 47.51858 8.07574 28730 ft 404 kts 234°
2026-05-03 21:09 47.50239 8.04164 29102 ft 406 kts 234°
2026-05-03 21:09 47.48610 8.00740 29471 ft 408 kts 234°
2026-05-03 21:09 47.46974 7.97308 29835 ft 410 kts 234°
2026-05-03 21:10 47.45323 7.93852 30167 ft 412 kts 234°
2026-05-03 21:10 47.43665 7.90390 30465 ft 414 kts 234°
2026-05-03 21:10 47.41996 7.86913 30782 ft 416 kts 234°
2026-05-03 21:10 47.40322 7.83432 31156 ft 415 kts 234°
2026-05-03 21:11 47.38659 7.79971 31612 ft 413 kts 234°
2026-05-03 21:11 47.36999 7.76523 32062 ft 411 kts 234°
2026-05-03 21:11 47.35347 7.73094 32512 ft 409 kts 234°
2026-05-03 21:11 47.33700 7.69681 32964 ft 407 kts 234°
2026-05-03 21:12 47.32060 7.66289 33403 ft 406 kts 234°
2026-05-03 21:12 47.30425 7.62909 33867 ft 404 kts 234°
2026-05-03 21:12 47.28753 7.59591 34285 ft 402 kts 233°
2026-05-03 21:12 47.27033 7.56349 34630 ft 401 kts 232°
2026-05-03 21:13 47.25283 7.53149 34948 ft 401 kts 231°
2026-05-03 21:13 47.23524 7.49966 35246 ft 401 kts 231°
2026-05-03 21:13 47.21768 7.46776 35547 ft 401 kts 232°
2026-05-03 21:13 47.20023 7.43581 35846 ft 400 kts 232°
2026-05-03 21:14 47.18288 7.40385 36163 ft 400 kts 232°
2026-05-03 21:14 47.16557 7.37188 36451 ft 399 kts 232°
2026-05-03 21:14 47.14829 7.33990 36702 ft 400 kts 232°
2026-05-03 21:14 47.13102 7.30795 36946 ft 400 kts 232°
2026-05-03 21:15 47.11365 7.27585 37047 ft 403 kts 232°
2026-05-03 21:15 47.09611 7.24349 37060 ft 408 kts 232°
2026-05-03 21:15 47.06021 7.17742 37074 ft 419 kts 232°
2026-05-03 21:16 47.02349 7.11004 37074 ft 426 kts 232°
2026-05-03 21:16 46.98635 7.04212 37079 ft 427 kts 232°
2026-05-03 21:17 46.95542 6.98570 37084 ft 427 kts 232°
2026-05-03 21:17 46.90979 6.90941 37083 ft 427 kts 221°
2026-05-03 21:18 46.85959 6.86283 37088 ft 429 kts 212°
2026-05-03 21:18 46.80765 6.81966 37094 ft 430 kts 211°
2026-05-03 21:19 46.75558 6.77659 37083 ft 430 kts 212°
2026-05-03 21:19 46.70356 6.73358 37096 ft 430 kts 212°
2026-05-03 21:20 46.65159 6.69058 37096 ft 430 kts 212°
2026-05-03 21:20 46.59994 6.64789 37088 ft 429 kts 212°
2026-05-03 21:21 46.54799 6.60508 37089 ft 429 kts 212°
2026-05-03 21:21 46.49599 6.56247 37091 ft 429 kts 212°
2026-05-03 21:22 46.44393 6.51990 37081 ft 429 kts 212°
2026-05-03 21:22 46.39224 6.47759 37054 ft 422 kts 212°
2026-05-03 21:23 46.34099 6.43580 37048 ft 424 kts 212°
2026-05-03 21:23 46.28954 6.39394 37075 ft 425 kts 212°
2026-05-03 21:24 46.23794 6.35206 37087 ft 426 kts 212°
2026-05-03 21:24 46.18623 6.31012 37092 ft 426 kts 211°
2026-05-03 21:25 46.13456 6.26843 37098 ft 426 kts 211°
2026-05-03 21:25 46.08275 6.22667 37100 ft 426 kts 211°
2026-05-03 21:26 46.03099 6.18496 37099 ft 426 kts 211°
2026-05-03 21:26 45.97920 6.14338 37091 ft 426 kts 211°
2026-05-03 21:27 45.92739 6.10191 37099 ft 426 kts 211°
2026-05-03 21:27 45.87553 6.06064 37103 ft 427 kts 209°
2026-05-03 21:28 45.81854 6.03558 37100 ft 434 kts 192°
2026-05-03 21:28 45.75886 6.02257 37091 ft 434 kts 192°
2026-05-03 21:29 45.69915 6.00951 37102 ft 434 kts 192°
2026-05-03 21:29 45.63954 5.99630 37105 ft 434 kts 192°
2026-05-03 21:30 45.57984 5.98315 37099 ft 434 kts 192°
2026-05-03 21:30 45.52230 5.97060 37101 ft 434 kts 192°
2026-05-03 21:31 45.46258 5.95716 37093 ft 434 kts 193°
2026-05-03 21:31 45.40363 5.93966 37082 ft 433 kts 196°
2026-05-03 21:32 45.34504 5.91998 37083 ft 433 kts 196°
2026-05-03 21:32 45.28630 5.90079 37084 ft 433 kts 195°
2026-05-03 21:33 45.22738 5.88247 37075 ft 434 kts 195°
2026-05-03 21:33 45.16836 5.86444 37080 ft 434 kts 195°
2026-05-03 21:34 45.10940 5.84629 37090 ft 434 kts 195°
2026-05-03 21:34 45.05039 5.82810 37095 ft 434 kts 195°
2026-05-03 21:35 44.99134 5.80988 37091 ft 434 kts 195°
2026-05-03 21:35 44.93236 5.79170 37094 ft 434 kts 195°
2026-05-03 21:36 44.87337 5.77353 37102 ft 434 kts 195°
2026-05-03 21:36 44.81441 5.75543 37104 ft 433 kts 195°
2026-05-03 21:37 44.76550 5.74043 37111 ft 433 kts 195°
2026-05-03 21:37 44.69671 5.71949 37115 ft 432 kts 195°
2026-05-03 21:38 44.63835 5.70184 37134 ft 432 kts 195°
2026-05-03 21:38 44.57918 5.68384 37131 ft 432 kts 195°
2026-05-03 21:39 44.52041 5.66594 37128 ft 432 kts 195°
2026-05-03 21:39 44.46171 5.64818 37126 ft 432 kts 195°
2026-05-03 21:40 44.41289 5.63345 37121 ft 432 kts 195°
2026-05-03 21:40 44.34655 5.60516 37127 ft 428 kts 204°
2026-05-03 21:41 44.30015 5.57960 37130 ft 428 kts 204°
2026-05-03 21:41 44.24470 5.54924 37126 ft 428 kts 204°
2026-05-03 21:42 44.18925 5.51898 37131 ft 428 kts 204°
2026-05-03 21:42 44.13382 5.48882 37134 ft 428 kts 204°
2026-05-03 21:43 44.07831 5.45867 37116 ft 428 kts 204°
2026-05-03 21:43 44.02285 5.42858 37127 ft 428 kts 204°
2026-05-03 21:44 43.96741 5.39853 37132 ft 428 kts 204°
2026-05-03 21:44 43.91195 5.36855 37128 ft 427 kts 204°
2026-05-03 21:45 43.85688 5.33886 37108 ft 428 kts 204°
2026-05-03 21:45 43.80110 5.30872 37119 ft 427 kts 204°
2026-05-03 21:46 43.74603 5.27907 37112 ft 427 kts 204°
2026-05-03 21:46 43.69056 5.24939 37093 ft 427 kts 204°
2026-05-03 21:47 43.63520 5.21968 37099 ft 427 kts 204°
2026-05-03 21:47 43.57978 5.18990 37102 ft 427 kts 204°
2026-05-03 21:48 43.52430 5.16026 37105 ft 427 kts 204°
2026-05-03 21:48 43.46883 5.13076 37099 ft 427 kts 203°
2026-05-03 21:49 43.41334 5.10126 37102 ft 427 kts 204°
2026-05-03 21:49 43.36131 5.06319 37103 ft 424 kts 216°
2026-05-03 21:50 43.31275 5.01721 37087 ft 424 kts 216°
2026-05-03 21:50 43.26403 4.97148 37084 ft 425 kts 216°
2026-05-03 21:51 43.21520 4.92573 37105 ft 425 kts 216°
2026-05-03 21:51 43.16633 4.87999 37106 ft 425 kts 216°
2026-05-03 21:52 43.11746 4.83430 37085 ft 426 kts 216°
2026-05-03 21:52 43.06852 4.78861 37089 ft 426 kts 216°
2026-05-03 21:53 43.01741 4.74745 37095 ft 427 kts 211°
2026-05-03 21:53 42.96547 4.70804 37095 ft 427 kts 211°
2026-05-03 21:54 42.91345 4.66873 37078 ft 427 kts 211°
2026-05-03 21:54 42.86142 4.62936 37083 ft 428 kts 211°
2026-05-03 21:55 42.80937 4.59010 37087 ft 428 kts 211°
2026-05-03 21:55 42.75766 4.55110 37094 ft 428 kts 211°
2026-05-03 21:56 42.70558 4.51193 37094 ft 427 kts 210°
2026-05-03 21:56 42.65347 4.47293 37089 ft 427 kts 210°
2026-05-03 21:57 42.60141 4.43401 37082 ft 427 kts 210°
2026-05-03 21:57 42.54933 4.39523 37079 ft 427 kts 210°
2026-05-03 21:58 42.49728 4.35641 37063 ft 427 kts 210°
2026-05-03 21:58 42.44523 4.31757 37069 ft 427 kts 210°
2026-05-03 21:59 42.39322 4.27895 37076 ft 426 kts 210°
2026-05-03 21:59 42.34124 4.24033 37059 ft 426 kts 210°
2026-05-03 22:00 42.28928 4.20185 37058 ft 426 kts 210°
2026-05-03 22:00 42.23725 4.16349 37067 ft 426 kts 210°
2026-05-03 22:01 42.18532 4.12528 37056 ft 425 kts 210°
2026-05-03 22:01 42.13339 4.08704 37057 ft 425 kts 210°
2026-05-03 22:02 42.08146 4.04888 37038 ft 425 kts 210°
2026-05-03 22:02 42.02988 4.01102 37045 ft 425 kts 210°
2026-05-03 22:03 41.97784 3.97301 37041 ft 425 kts 210°
2026-05-03 22:03 41.92498 3.93726 37040 ft 427 kts 201°
2026-05-03 22:04 41.86667 3.92007 37024 ft 431 kts 193°
2026-05-03 22:04 41.80755 3.90652 37031 ft 431 kts 193°
2026-05-03 22:05 41.74837 3.89314 37031 ft 432 kts 193°
2026-05-03 22:05 41.68913 3.87970 37018 ft 432 kts 193°
2026-05-03 22:06 41.62990 3.86605 37028 ft 432 kts 193°
2026-05-03 22:06 41.57070 3.85233 37034 ft 432 kts 193°
2026-05-03 22:07 41.51146 3.83866 37036 ft 432 kts 193°
2026-05-03 22:07 41.45216 3.82503 37015 ft 433 kts 193°
2026-05-03 22:08 41.39276 3.81150 37032 ft 433 kts 193°
2026-05-03 22:08 41.33372 3.79808 36778 ft 423 kts 193°
2026-05-03 22:09 41.30505 3.79160 36514 ft 413 kts 193°
2026-05-03 22:09 41.27693 3.78524 36237 ft 408 kts 193°
2026-05-03 22:09 41.24901 3.77890 35965 ft 405 kts 193°
2026-05-03 22:10 41.19374 3.76640 35479 ft 400 kts 193°
2026-05-03 22:10 41.16638 3.76011 35228 ft 398 kts 194°
2026-05-03 22:10 41.13996 3.75035 34984 ft 392 kts 203°
2026-05-03 22:10 41.11779 3.73878 34771 ft 390 kts 203°
2026-05-03 22:11 41.09173 3.72522 34521 ft 388 kts 203°
2026-05-03 22:11 41.06661 3.71224 34265 ft 386 kts 203°
2026-05-03 22:11 41.04200 3.69956 34029 ft 383 kts 203°
2026-05-03 22:11 41.01720 3.68681 33760 ft 381 kts 203°
2026-05-03 22:12 40.99252 3.67414 33490 ft 380 kts 203°
2026-05-03 22:12 40.96791 3.66152 33226 ft 379 kts 203°
2026-05-03 22:12 40.94336 3.64894 32961 ft 378 kts 202°
2026-05-03 22:12 40.91891 3.63641 32693 ft 375 kts 202°
2026-05-03 22:13 40.89471 3.62401 32292 ft 371 kts 202°
2026-05-03 22:13 40.87070 3.61173 31858 ft 369 kts 202°
2026-05-03 22:13 40.84682 3.59957 31420 ft 367 kts 203°
2026-05-03 22:13 40.82306 3.58746 31008 ft 365 kts 203°
2026-05-03 22:14 40.79942 3.57536 30591 ft 364 kts 203°
2026-05-03 22:14 40.77588 3.56328 30184 ft 363 kts 203°
2026-05-03 22:14 40.75232 3.55121 29746 ft 362 kts 203°
2026-05-03 22:14 40.72887 3.53922 29335 ft 360 kts 203°
2026-05-03 22:15 40.70561 3.52736 28941 ft 358 kts 203°
2026-05-03 22:15 40.68242 3.51558 28560 ft 356 kts 203°
2026-05-03 22:15 40.65938 3.50389 28174 ft 354 kts 203°
2026-05-03 22:15 40.63647 3.49227 27793 ft 352 kts 203°
2026-05-03 22:16 40.61372 3.48072 27418 ft 350 kts 203°
2026-05-03 22:16 40.59111 3.46925 27028 ft 348 kts 203°
2026-05-03 22:16 40.56857 3.45782 26635 ft 346 kts 203°
2026-05-03 22:16 40.54620 3.44645 26241 ft 344 kts 203°
2026-05-03 22:17 40.52393 3.43512 25839 ft 342 kts 203°
2026-05-03 22:17 40.50177 3.42387 25442 ft 341 kts 203°
2026-05-03 22:17 40.47968 3.41270 25035 ft 340 kts 203°
2026-05-03 22:17 40.45766 3.40166 24631 ft 339 kts 201°
2026-05-03 22:18 40.43467 3.39459 24196 ft 341 kts 189°
2026-05-03 22:18 40.41084 3.39411 23764 ft 344 kts 181°
2026-05-03 22:18 40.38695 3.39557 23294 ft 344 kts 181°
2026-05-03 22:18 40.36310 3.39696 22836 ft 342 kts 181°
2026-05-03 22:19 40.33943 3.39830 22397 ft 339 kts 182°
2026-05-03 22:19 40.31592 3.39960 21965 ft 337 kts 182°
2026-05-03 22:19 40.29254 3.40089 21533 ft 336 kts 182°
2026-05-03 22:19 40.26925 3.40219 21101 ft 334 kts 182°
2026-05-03 22:20 40.24606 3.40350 20677 ft 333 kts 182°
2026-05-03 22:20 40.22297 3.40480 20247 ft 332 kts 182°
2026-05-03 22:20 40.19996 3.40609 19808 ft 331 kts 182°
2026-05-03 22:20 40.17699 3.40739 19388 ft 330 kts 182°
2026-05-03 22:21 40.15437 3.40867 18967 ft 329 kts 182°
2026-05-03 22:21 40.13119 3.40998 18535 ft 329 kts 182°
2026-05-03 22:21 40.10833 3.41130 18077 ft 329 kts 182°
2026-05-03 22:21 40.08550 3.41261 17637 ft 327 kts 182°
2026-05-03 22:22 40.06324 3.41386 17234 ft 325 kts 182°
2026-05-03 22:22 40.04045 3.41515 16824 ft 323 kts 182°
2026-05-03 22:22 40.01810 3.41641 16502 ft 318 kts 182°
2026-05-03 22:22 39.99652 3.41765 16223 ft 311 kts 182°
2026-05-03 22:23 39.97507 3.41767 15509 ft 304 kts 193°
2026-05-03 22:23 39.95538 3.40953 14833 ft 294 kts 213°
2026-05-03 22:23 39.93947 3.39352 14162 ft 287 kts 228°
2026-05-03 22:23 39.92548 3.37502 13452 ft 286 kts 228°
2026-05-03 22:24 39.91161 3.35660 12749 ft 284 kts 228°
2026-05-03 22:24 39.89786 3.33831 12077 ft 281 kts 228°
2026-05-03 22:24 39.88424 3.32019 11421 ft 279 kts 228°
2026-05-03 22:24 39.87073 3.30221 10779 ft 277 kts 228°
2026-05-03 22:25 39.85734 3.28439 10158 ft 274 kts 228°
2026-05-03 22:25 39.84405 3.26672 9508 ft 272 kts 228°
2026-05-03 22:25 39.83084 3.24920 8860 ft 273 kts 227°
2026-05-03 22:25 39.81759 3.23165 8483 ft 272 kts 227°
2026-05-03 22:26 39.80436 3.21412 8109 ft 271 kts 227°
2026-05-03 22:26 39.79114 3.19666 7766 ft 270 kts 227°
2026-05-03 22:26 39.77802 3.17931 7435 ft 268 kts 227°
2026-05-03 22:26 39.76497 3.16203 7101 ft 267 kts 226°
2026-05-03 22:27 39.75198 3.14488 6778 ft 266 kts 226°
2026-05-03 22:27 39.73905 3.12783 6449 ft 265 kts 226°
2026-05-03 22:27 39.72613 3.11078 6087 ft 264 kts 226°
2026-05-03 22:27 39.71331 3.09384 5781 ft 262 kts 228°
2026-05-03 22:28 39.70582 3.08162 5569 ft 260 kts 235°
2026-05-03 22:28 39.69617 3.06181 5234 ft 259 kts 238°
2026-05-03 22:28 39.68720 3.04216 4902 ft 247 kts 239°
2026-05-03 22:28 39.67852 3.02347 4587 ft 236 kts 238°
2026-05-03 22:29 39.67009 3.00549 4281 ft 232 kts 238°
2026-05-03 22:29 39.66171 2.98761 3967 ft 231 kts 237°
2026-05-03 22:29 39.65341 2.96992 3654 ft 226 kts 237°
2026-05-03 22:29 39.64545 2.95295 3373 ft 215 kts 237°
2026-05-03 22:30 39.63787 2.93678 3098 ft 204 kts 236°
2026-05-03 22:30 39.63069 2.92149 2871 ft 193 kts 235°
2026-05-03 22:30 39.62394 2.90712 2587 ft 180 kts 235°
2026-05-03 22:30 39.61772 2.89388 2348 ft 166 kts 235°
2026-05-03 22:31 39.61191 2.88154 2132 ft 155 kts 234°
2026-05-03 22:31 39.60645 2.86994 1931 ft 146 kts 233°
2026-05-03 22:31 39.60131 2.85901 1741 ft 139 kts 234°
2026-05-03 22:31 39.59631 2.84842 1577 ft 135 kts 234°
2026-05-03 22:32 39.59144 2.83809 1395 ft 133 kts 233°
2026-05-03 22:32 39.58661 2.82784 1214 ft 133 kts 235°
2026-05-03 22:32 39.58181 2.81751 1069 ft 137 kts 236°
2026-05-03 22:32 39.57676 2.80705 868 ft 137 kts 236°
2026-05-03 22:33 39.57176 2.79647 668 ft 138 kts 237°
2026-05-03 22:33 39.56683 2.78578 466 ft 138 kts 238°
2026-05-03 22:33 39.56185 2.77524 310 ft 138 kts 237°
2026-05-03 22:33 39.55681 2.76462 158 ft 138 kts 237°
2026-05-03 22:34 39.55183 2.75405 49 ft 137 kts 237°
2026-05-03 22:34 39.54770 2.74530 38 ft 75 kts 238°
2026-05-03 22:34 39.54609 2.74189 37 ft 29 kts 238°
2026-05-03 22:34 39.54553 2.73982 38 ft 19 kts 267°
2026-05-03 22:35 39.54552 2.73921 38 ft 7 kts 264°
2026-05-03 22:35 39.54546 2.73851 38 ft 9 kts 261°
2026-05-03 22:35 39.54546 2.73759 38 ft 11 kts 277°
2026-05-03 22:35 39.54584 2.73657 38 ft 14 kts 315°
2026-05-03 22:36 39.54663 2.73594 38 ft 12 kts 340°
2026-05-03 22:36 39.54742 2.73550 38 ft 9 kts 334°
2026-05-03 22:36 39.54799 2.73508 38 ft 8 kts 329°
2026-05-03 22:36 39.54818 2.73497 38 ft 5 kts 345°
2026-05-03 22:37 39.54853 2.73518 36 ft 4 kts 43°
2026-05-03 22:37 39.54862 2.73530 38 ft 3 kts 44°
2026-05-03 22:37 39.54864 2.73532 38 ft 0 kts 44°